Regional Weather Roundup
Issued by NWS Midland/Odessa, TX

Skip options and go directly to product.
Home | Oldest Version | Previous Version | Current Version | All | Text Only | Save Text | Print | Product List | Glossary Off

Skip product version selection by date and time.   

603
ASUS44 KMAF 032210
RWRMAF
MIDLAND AREA WEATHER ROUNDUP
NATIONAL WEATHER SERVICE MIDLAND TX
500 PM CDT FRI JUL 03 2015

...IN SOUTHWEST TEXAS AND SOUTHEAST NEW MEXICO...

CITY           SKY/WX    TMP DP  RH WIND       PRES   REMARKS
ALPINE         MOSUNNY   86  58  38 NE16G24   30.11F
ANDREWS        FAIR      89  61  38 SE9G20    30.01S
ARTESIA        CLOUDY    84  63  48 SE17G23   30.05S
BIG SPRING     PTSUNNY   89  59  35 E9        30.00S
CARLSBAD       LGT RAIN  74  66  76 N15       30.03R
DRYDEN           N/A     88  66  48 SE9       29.93F
FORT STOCKTON  MOSUNNY   86  63  45 E13G24    29.99F
GUAD PASS      CLOUDY    76  57  51 NE25      30.15R
HOBBS          PTSUNNY   84  59  42 E8        30.04S
MARFA          MOSUNNY  N/A N/A N/A NE15G21   30.09F
MIDLAND AIRPK  MOSUNNY   89  62  39 E7        30.00S
MIDLAND INTL   MOSUNNY   87  63  44 E12       29.99F
ODESSA         MOSUNNY   88  62  41 SE12G17   30.00F
PECOS          MOSUNNY   89  59  36 E6G20     29.96S
PRESIDIO       NOT AVBL
SEMINOLE       PTSUNNY   88  58  35 SE8G17    30.02S
SNYDER         PTSUNNY   86  66  51 S9        29.99S
WINK           SUNNY     91  61  36 E12G18    29.95F
$$
...OTHER STATIONS IN TEXAS...

CITY           SKY/WX    TMP DP  RH WIND       PRES   REMARKS
ABILENE        PTSUNNY   90  62  39 S7        29.96F
AMARILLO       SUNNY     87  57  35 SE10G17   30.03F
AUSTIN         MOSUNNY   90  70  51 S10       29.93F
BROWNSVILLE    MOSUNNY   89  74  60 SE20      29.93S
CORPUS CHRISTI PTSUNNY   89  74  60 SE17      29.93F
DALLAS FTW     CLOUDY    92  66  42 SW10      29.91F
DEL RIO        MOSUNNY   90  67  46 SE14G25   29.89F
EL PASO        MOSUNNY   95  52  23 NE12      29.97F
HOUSTON INT    PTSUNNY   87  74  64 S14       29.96F
LUBBOCK        PTSUNNY   89  63  41 S13       30.00F
SAN ANGELO     SUNNY     90  63  40 SE12G17   29.95F
SAN ANTONIO    PTSUNNY   90  69  50 SE13      29.95F
WACO           MOSUNNY   91  68  46 S12       29.94F
WICHITA FALLS  NOT AVBL
$$
...OTHER LOCATIONS IN NEW MEXICO...

CITY           SKY/WX    TMP DP  RH WIND       PRES   REMARKS
ALAMAGORDO     MOSUNNY   90  54  29 S8        30.02F
ALBUQUERQUE    PTSUNNY   87  54  32 VRB3      30.09F
CANNON AFB     PTSUNNY   86  57  37 VRB6      30.07F
CLOVIS         PTSUNNY   84  55  37 SE7         N/A
HOLLOMAN AFB   CLOUDY    90  54  29 SE14      29.98F
ROSWELL        CLOUDY    86  63  45 NE6       30.04S
RUIDOSO        MOSUNNY   75  52  43 E8        30.25F
SANTA FE       CLOUDY    79  51  37 NW10      30.18F
TRUTH OR CONSE PTSUNNY   90  52  27 VRB6      30.04F
TUCUMCARI      MOSUNNY   90  55  30 VRB6      30.03F
$$

USA.gov is the U.S. government's official web portal to all federal, state and local government web resources and services.